sat.trackr.live / text

‹ back to catalog

STARLINK-34523

NORAD 64475 · 2025-133D

PAYLOAD ACTIVE UNKNOWN

§ Identity

Operator
Country
US
Launch date
2025-06-23
Launch site
AFETR
Launch vehicle
Mass (kg)
RCS (m²)

Purposes: comms

External: N2YO · Heavens-Above · Gunter

§ Orbital elements

Epoch: 2026-09-20T02:03:01.194336Z

Period
93.85 min
Inclination
53.1577°
Eccentricity
0.0001105
Mean motion
15.34410474 rev/d
Perigee alt
461.9 km
Apogee alt
463.4 km
Semi-major
6,840.8 km
B*
5.9422e-4
RAAN
288.0059°
Arg perigee
80.7915°
Mean anomaly
279.3212°
Rev number
7,101

§ Raw data

STARLINK-345231 64475U 25133D   26263.08543049  .00019760  00000+0  59422-3 0  99992 64475  53.1577 288.0059 0001105  80.7915 279.3212 15.34410474 71013

JSON: /api/v1/satellites/64475 · /tle

For live sub-satellite position, see the globe view (requires WebGL).

§ Visibility from observer

Set your observer location to see the next 7 days of passes ≥ 10°. The values pass through the URL so the page stays shareable.

No JS? Fill the form by hand. The geolocation button needs JavaScript.